Location: Litvinovka
(48.6667°N, 34.3500°E)
Time: 01:26:44
(UTC+00:00)

NOSS 3-2 (C) - Pass Details

Date: 18 September 2020
Orbit: 795 x 1418 km, 63.4° (Epoch: 02 October)

Event Time Altitude Azimuth Distance (km) Brightness Sun altitude
Rises 16:55:45 0° 316° (NW) 3,847 7.7 -11.8°
Reaches altitude 10° 16:58:22 10° 322° (NW) 2,979 6.9 -12.2°
Maximum altitude 17:05:23 51° 37° (NE) 1,523 4.4 -13.3°
Enters shadow 17:11:18 19° 106° (ESE) 2,739 5.2 -14.2°
